FENGYUN 1C DEB, 30623

Orbit data source: Space-Track

FENGYUN 1C DEB, 30623 is space debris in SSO originally from a launch on Mon, 10 May 1999 UTC launched from the Taiyaun Space Center, China (TSC). Fengyun 1C debris stems from the Chinese weather satellite Fengyun-1C, which was intentionally destroyed by a Chinese anti-satellite missile in 2007. This event dramatically increased the amount of space debris, with thousands of trackable fragments posing hazards to satellites and human spaceflight. The Fengyun 1C debris cloud has become a focal point in discussions about space sustainability and the need for international regulations to prevent the creation of new debris.

Loading next visibility...
Identifier
30623, 1999-025ANE
Orbit
SSO
Country
Flag of CNCN / PRC
Related business
Manufacturer
Unknown
Mission
Spacecraft
Bus & Motor
Unknown
Mass
Unknown
Launch date (UTC)
1999-05-10 (27 years ago)
Launch vehicle
Unknown
Launch site
Taiyaun Space Center, China (TSC)
Object type
Payload
Rocket body
Debris
Shape & HBR
Unknown shape, 0.1 m
Radar Cross Section
Small (<0.1 m²)

Expand to show TLE details & history
Last TLE update: 23 hours ago

TLE from 23 hours ago
0 FENGYUN 1C DEB
1 30623U 99025ANE 25350.78342413  .00000332  00000-0  50303-3 0  9998
2 30623  98.8230 168.9289 0403785  97.8237 283.5666 13.29341822912702
Epoch: 2025-12-16T18:48Z
TLE epoch observation values (Epoch: 2025-12-16T18:48:07.844Z)
Latitude
16.62365°
Longitude
158.59099°
Altitude
1,091.852 km
Speed
7.337 km/s
True Right ascension
11h 05m 08s
True Declination
16° 32' 02"
Sunlit
Object was in daylight at epoch
Visualization orbit readout
Latitude
Unknown
Longitude
Unknown
Altitude
Unknown
Speed
Unknown
Apparent Right ascension
Unknown
Apparent Declination
Unknown
Sunlit
N/A
Visualization observer readout
Local Sidereal Time
16:13:31
Azimuth
Unknown
Elevation
Unknown
Doppler factor
Unknown
Orbital elements
Apogee altitude
1,450.361 km
Perigee altitude
842.692 km
Semi-major axis
7,524.664 km
Eccentricity
0.04038
Inclination
98.823°
RAAN
168.9289°
Arg. of periapsis
97.8237°
True anomaly
279.01959°
Mean anomaly
283.5666°
Eccentric anomaly
281.29791°
Mean motion
3.32516 °/min
Orbital period
108.27 mins
BSTAR
0.00050303
Loading maneuver chart data...
Computing Atmospheric mass density...

Documentation

Showing up to 5 results
|